Roswell, NM

10:08 PM MDT on March 29, 2017 (GMT -0600)
Roswell Industrial

Weather History for KROW - August, 2014

Change the Weather History Date:

Wednesday, August 20, 2014

  Actual Average Record
Temperature  
Mean Temperature 81 °F 79 °F  
Max Temperature 95 °F 92 °F 107 °F (2007)
Min Temperature 66 °F 66 °F 54 °F (1897)
Degree Days  
Heating Degree Days 0 0  
Month to date heating degree days 0 0  
Since 1 June heating degree days 0 1  
Since 1 July heating degree days 0 0  
Cooling Degree Days 16 14  
Month to date cooling degree days 283 288  
Year to date cooling degree days 1515 1386  
Since 1 June cooling degree days 1261 1161  
Growing Degree Days 30 (Base 50)    
Moisture  
Dew Point 58 °F    
Average Humidity 53    
Maximum Humidity 78    
Minimum Humidity 28    
Precipitation  
Precipitation 0.00 in 0.06 in 1.45 in (1978)
Month to date precipitation 2.36 1.30  
Year to date precipitation 12.07 8.26  
Sea Level Pressure  
Sea Level Pressure 29.71 in    
Wind  
Wind Speed 7 mph (SSW)    
Max Wind Speed 20 mph    
Max Gust Speed 25 mph    
Visibility 10 miles    
Events      
T = Trace of Precipitation, MM = Missing Value Source: NWS Daily Summary

Daily Weather History Graph

Daily Weather History Graph

Search for Another Location

Airport or City:

Trip Planner

Search our weather history database for the weather conditions in past years. The results will help you decide how hot, cold, wet, or windy it might be!

Date:

Astronomy

Aug. 20, 2014 Rise Set
Actual Time 6:24 AM MDT 7:38 PM MDT
Civil Twilight 5:58 AM MDT 8:03 PM MDT
Nautical Twilight 5:27 AM MDT 8:34 PM MDT
Astronomical Twilight 4:55 AM MDT 9:06 PM MDT
Moon 2:11 AM MDT (8/20) 4:19 PM MDT (8/20)
Length of Visible Light 14h 05m
Length of Day
13h 13m
Waning Crescent, 20% of the Moon is Illuminated
Aug 20
Waning Crescent
Aug 25
New
Sep 2
First Quarter
Sep 8
Full
Sep 15
Last Quarter

Hourly Weather History & Observations

Time (MDT) Temp. Heat Index Dew Point Humidity Pressure Visibility Wind Dir Wind Speed Gust Speed Precip Events Conditions
12:51 AM 73.9 °F - 60.1 °F 62% 29.67 in 10.0 mi South 4.6 mph - N/A   Clear
1:51 AM 71.1 °F - 55.9 °F 59% 29.65 in 10.0 mi SW 5.8 mph - N/A   Clear
2:51 AM 71.1 °F - 57.0 °F 61% 29.66 in 10.0 mi SSE 6.9 mph - N/A   Clear
3:51 AM 69.1 °F - 57.9 °F 68% 29.68 in 10.0 mi South 8.1 mph - N/A   Clear
4:51 AM 68.0 °F - 57.9 °F 70% 29.69 in 10.0 mi SW 4.6 mph - N/A   Clear
5:51 AM 69.1 °F - 57.9 °F 68% 29.70 in 10.0 mi WNW 5.8 mph - N/A   Partly Cloudy
6:51 AM 66.9 °F - 59.0 °F 76% 29.73 in 10.0 mi SSE 3.5 mph - N/A   Clear
7:51 AM 72.0 °F - 60.1 °F 66% 29.74 in 10.0 mi Calm Calm - N/A   Scattered Clouds
8:51 AM 75.0 °F - 59.0 °F 57% 29.76 in 10.0 mi Calm Calm - N/A   Partly Cloudy
9:51 AM 80.1 °F 81.1 °F 61.0 °F 52% 29.75 in 10.0 mi East 5.8 mph - N/A   Partly Cloudy
10:51 AM 84.9 °F 84.4 °F 59.0 °F 41% 29.74 in 10.0 mi SE 5.8 mph - N/A   Clear
11:51 AM 89.1 °F 88.0 °F 57.9 °F 35% 29.73 in 10.0 mi NE 5.8 mph - N/A   Clear
12:51 PM 89.1 °F 89.0 °F 61.0 °F 39% 29.72 in 10.0 mi North 4.6 mph - N/A   Clear
1:51 PM 91.9 °F 91.5 °F 60.1 °F 34% 29.70 in 10.0 mi NNE 10.4 mph - N/A   Clear
4:51 PM 91.9 °F 89.5 °F 54.0 °F 27% 29.66 in 10.0 mi SW 4.6 mph - N/A   Mostly Cloudy
5:51 PM 91.0 °F 90.2 °F 59.0 °F 34% 29.67 in 10.0 mi WNW 16.1 mph 25.3 mph N/A   Partly Cloudy
6:51 PM 88.0 °F 86.5 °F 55.9 °F 34% 29.69 in 10.0 mi NW 12.7 mph - N/A   Clear
7:51 PM 84.9 °F 83.9 °F 57.0 °F 38% 29.70 in 10.0 mi NNW 5.8 mph - N/A   Partly Cloudy
9:51 PM 82.0 °F 82.1 °F 59.0 °F 45% 29.73 in 10.0 mi WSW 11.5 mph - N/A   Partly Cloudy
10:51 PM 79.0 °F - 57.9 °F 48% 29.74 in 10.0 mi SW 4.6 mph - N/A   Overcast
11:51 PM 77.0 °F - 60.1 °F 56% 29.74 in 10.0 mi SE 9.2 mph - N/A   Clear